Overview Statistics Trail Chart Weather Telemetry Raw packets
 

This is the latest recevied weather packets stored in our database for station/object IZ2XCK-13. If no packets are shown the sender has not sent any weather packets the latest 10 day(s).

<< 1 2 3 4 >>
Time Temp. Humidity Pressure Rain* Wind** Luminosity Snow
1788566050 22.78° C 59% 1020.8 hPa - - - -
1788564850 23.33° C 59% 1020.8 hPa - - - -
1788563649 22.78° C 60% 1020.8 hPa - - - -
1788562449 23.33° C 60% 1021 hPa - - - -
1788561249 23.33° C 59% 1021 hPa - - - -
1788560048 23.33° C 59% 1021.2 hPa - - - -
1788558848 23.89° C 58% 1021.5 hPa - - - -
1788557648 23.89° C 57% 1021.5 hPa - - - -
1788556447 23.89° C 58% 1021.7 hPa - - - -
1788555247 24.44° C 55% 1021.7 hPa - - - -
1788554047 25° C 55% 1021.7 hPa - - - -
1788552846 25° C 55% 1021.9 hPa - - - -
1788551646 25° C 55% 1021.8 hPa - - - -
1788550446 25° C 54% 1021.8 hPa - - - -
1788549245 25.56° C 53% 1021.5 hPa - - - -
1788548045 26.11° C 52% 1021.4 hPa - - - -
1788546845 26.67° C 51% 1021.3 hPa - - - -
1788545644 26.67° C 51% 1021.1 hPa - - - -
1788544444 27.22° C 49% 1020.8 hPa - - - -
1788543244 27.78° C 49% 1020.8 hPa - - - -
1788542043 28.33° C 48% 1020.7 hPa - - - -
1788540843 28.33° C 45% 1020.7 hPa - - - -
1788539643 28.89° C 44% 1020.7 hPa - - - -
1788538442 30.56° C 38% 1020.7 hPa - - - -
1788537242 31.11° C 39% 1020.7 hPa - - - -

* Rain since midnight (hover to see other rain measurements)
** Current wind speed in m/s (hover to see current wind gust speed)